Mikkeli, Suomi

14. joulukuuta 2018 klo 03:42 (EET) (GMT +0200)
Mikkeli | | Change Station

Kork 453 ft 61.73 °N, 27.30 °E | Updated 52 minutes ago

Overcast
Täysin pilvistä
23 °F
Tuntuu kuin 23 °F
N
0
Tuuli Suunnaltaan vaihteleva Tuuli ilmansuunnasta Pohjoinen

Tänään
Korkea -- | Matala -- °F
--% Sateen mahd.
Eilen
Korkea -- | Matala -- °F
Precip. -- tuumaa
Ilmanpaine 30.54 tuumaa
Näkyvyys 3.7 mailia
Pilviä Täysin pilvistä 1000 ft
Kastepiste 21 °F
Ilmankosteus 93%
Sademäärä 0.00 tuumaa
Lumensyvyys Ei saatavilla
9:24 AM 2:46 PM
Kasvava sirppi, 37% visible
METAR EFMI 140050Z AUTO 00000KT 6000 OVC010 M05/M06 Q1034
Ilmanpaine 30.54 tuumaa
Näkyvyys 3.7 mailia
Pilviä Täysin pilvistä 1000 ft
Kastepiste 21 °F
Ilmankosteus 93%
Sademäärä 0.00 tuumaa
Lumensyvyys Ei saatavilla
9:24 AM 2:46 PM
Kasvava sirppi, 37% visible
METAR EFMI 140050Z AUTO 00000KT 6000 OVC010 M05/M06 Q1034

Get Severe Weather Alerts

Thanks for signing up!

Be on the lookout for a verification email in your inbox.

You'll start receiving the daily forecast at 6 AM.

×

10-Day Weather Forecast

×

Almanac

Tähtitiede

Dec. 14, 2018 Nousuaika Laskuaika
Valoisa aika
Porvarillinen hämärä
Nauttinen hämärä
Astronominen hämärä
Kuu
Näkyvän valon pituus
Päivän pituus
Tomorrow will be .
, % of the Moon is Illuminated

Tämän päivän ennätykset

Country Highs Country Lows

Community

WunderPhotos

Category 6

Welcome to Category 6. This is the collective home for Weather Underground's featured writeups by Dr. Jeff Masters (right), Bob Henson (left), Chris Burt, and other regular contributors.

Nearby

Ilmanlaatu

  Ilmanlaatu AQ Index Pollutant
Not available.

Lumensyvyys

Station Depth Korkeus

Maanjäristysaktiivisuus

Paikkakunta Distance Mag. Time & Date
Minimum magnitude displayed is 2.5.

Coastal Water Temperatures

Paikka Lämpötila

Stations

Lähimmät sääasemat

Aseman sijainti Lämpötila Tuulen hyytävyys Kastepiste Ilmankosteus Tuuli Precip. Kork Päivitetty Tyyppi